Location: Leuk
(46.3174°N, 7.6341°E)
Time: 17:52:46
(UTC+00:00)

CZ-2C R/B - Pass Details

Date: 09 March 2021
Orbit: 667 x 785 km, 98.2° (Epoch: 14 April)

Event Time Altitude Azimuth Distance (km) Brightness Sun altitude
Rises 02:55:00 0° 19° (NNE) 3,112 6.3 -30.7°
Reaches altitude 10° 02:57:24 10° 26° (NNE) 2,171 5.5 -30.3°
Maximum altitude 03:01:55 43° 98° (E) 956 3.2 -29.6°
Enters shadow 03:02:04 43° 104° (ESE) 957 3.2 -29.6°
